DW7126 Lourinha PT current weather conditions

sailwx.info

Wind from 177 at 8 knots gusting 13

Air temperature 18.3° C
Dewpoint 17.0° C

Last reported at 2014-Sep-18 22:00 UTC.
Time now 2014-Sep-18 23:47 UTC

Location: N 39°14' W 009°18'.
View on Google Maps.

See reports from other nearby stations

  
Tides and Currents Weather Stations Pressure Air Temp Water Temp Dewpoint Dewpoint Depression Visibility Wind Speed Wind Dir Waves Ship Positions
date/time (UTC)wind fromknots sea level pressurealtimeterstation pressurevisibilityair tempwater tempwave heightnotes
2014-Sep-18 22:00 177 8 gusting 13 18.3
2014-Sep-18 21:55 198 9 gusting 13 18.3
2014-Sep-18 21:50 189 9 gusting 12 18.3
2014-Sep-18 21:45 178 8 gusting 13 18.3
2014-Sep-18 21:40 177 7 gusting 13 18.3
2014-Sep-18 21:35 194 7 gusting 12 18.3
2014-Sep-18 21:30 187 6 gusting 10 17.8
2014-Sep-18 21:25 209 5 gusting 9 17.8
2014-Sep-18 21:20 203 6 gusting 9 18.3
2014-Sep-18 21:15 213 6 gusting 10 17.8
2014-Sep-18 21:10 200 5 gusting 7 17.8
2014-Sep-18 21:05 207 4 gusting 11 17.8
2014-Sep-18 21:00 213 6 gusting 11 18.3
2014-Sep-18 20:55 202 6 gusting 8 18.3
2014-Sep-18 20:50 202 6 gusting 10 18.3
2014-Sep-18 20:45 200 6 gusting 10 18.3
2014-Sep-18 20:40 213 6 gusting 10 18.3
2014-Sep-18 20:35 206 6 gusting 11 18.3
2014-Sep-18 20:30 195 6 gusting 11 18.3
2014-Sep-18 20:25 210 8 gusting 12 18.3
2014-Sep-18 20:20 204 9 gusting 12 18.3
2014-Sep-18 20:15 221 7 gusting 11 18.3
2014-Sep-18 20:10 360 7 gusting 11 18.3
2014-Sep-18 20:05 205 7 gusting 11 18.3
2014-Sep-18 20:00 202 6 gusting 12 18.3
2014-Sep-18 19:55 186 7 gusting 12 18.3
2014-Sep-18 19:50 202 6 gusting 11 18.3
2014-Sep-18 19:45 196 7 gusting 9 18.3
2014-Sep-18 19:40 202 6 gusting 10 18.3
2014-Sep-18 19:35 207 7 gusting 12 18.3
2014-Sep-18 19:30 210 7 gusting 13 18.3
2014-Sep-18 19:25 215 10 gusting 14 18.3
2014-Sep-18 19:20 209 10 gusting 14 18.3
2014-Sep-18 19:15 211 9 gusting 13 18.3
2014-Sep-18 19:10 227 9 gusting 13 18.3
2014-Sep-18 19:05 207 9 gusting 13 18.3
2014-Sep-18 19:00 217 7 gusting 13 18.3
2014-Sep-18 18:55 231 8 gusting 15 18.3
2014-Sep-18 18:50 212 10 gusting 16 18.3
2014-Sep-18 18:45 223 12 gusting 19 18.3
2014-Sep-18 18:40 217 12 gusting 20 18.3
2014-Sep-18 18:35 219 13 gusting 19 18.9
2014-Sep-18 18:30 212 11 gusting 15 18.9
2014-Sep-18 18:25 209 10 gusting 13 18.9
2014-Sep-18 18:20 201 9 gusting 15 18.9
2014-Sep-18 18:15 205 11 gusting 15 18.9
2014-Sep-18 18:10 211 10 gusting 13 18.9
2014-Sep-18 18:05 204 8 gusting 13 18.9
2014-Sep-18 18:00 211 9 gusting 14 18.9
2014-Sep-18 17:55 242 10 gusting 14 18.9
2014-Sep-18 17:50 205 9 gusting 14 18.9
2014-Sep-18 17:45 211 11 gusting 15 18.9
2014-Sep-18 17:40 196 11 gusting 15 18.9
2014-Sep-18 17:35 196 10 gusting 13 18.9
2014-Sep-18 17:30 360 10 gusting 16 18.9
2014-Sep-18 17:25 213 12 gusting 19 19.4
2014-Sep-18 17:20 233 13 gusting 19 19.4
2014-Sep-18 17:15 217 10 gusting 14 18.9
2014-Sep-18 17:10 194 10 gusting 16 18.9
2014-Sep-18 17:05 198 12 gusting 16 19.4
2014-Sep-18 17:00 360 12 gusting 14 19.4
2014-Sep-18 16:55 221 10 gusting 14 19.4
2014-Sep-18 16:50 212 11 gusting 14 19.4
2014-Sep-18 16:45 230 10 gusting 14 19.4
2014-Sep-18 16:40 215 11 gusting 14 19.4
2014-Sep-18 16:35 211 10 gusting 13 18.9
2014-Sep-18 16:30 214 10 gusting 19 18.9
2014-Sep-18 16:25 221 11 gusting 18 18.9
2014-Sep-18 16:20 218 13 gusting 18 18.9
2014-Sep-18 16:15 222 12 gusting 20 18.9
2014-Sep-18 16:10 209 14 gusting 20 18.9
2014-Sep-18 16:05 227 8 gusting 16 18.3
2014-Sep-18 16:00 221 12 gusting 14 18.3
2014-Sep-18 15:55 225 13 gusting 15 18.3
2014-Sep-18 15:50 360 13 gusting 20 17.8
2014-Sep-18 15:45 209 15 gusting 25 17.8
2014-Sep-18 15:40 219 19 gusting 28 18.3
2014-Sep-18 15:35 232 19 gusting 29 18.3
2014-Sep-18 15:30 244 19 gusting 26 18.9
2014-Sep-18 15:25 254 13 gusting 19 19.4
2014-Sep-18 15:20 219 15 gusting 26 19.4
2014-Sep-18 15:15 257 17 gusting 26 20.0
2014-Sep-18 15:10 228 19 gusting 27 21.1
2014-Sep-18 15:05 216 16 gusting 24 21.1
2014-Sep-18 15:00 360 18 gusting 29 21.1
2014-Sep-18 14:55 227 22 gusting 29 21.1
2014-Sep-18 14:50 221 19 gusting 28 21.1
2014-Sep-18 14:45 227 16 gusting 27 21.1
2014-Sep-18 14:40 215 20 gusting 26 21.1
2014-Sep-18 14:35 232 20 gusting 26 21.1
2014-Sep-18 14:30 360 15 gusting 22 21.1
2014-Sep-18 14:25 245 18 gusting 27 21.1
2014-Sep-18 14:20 224 19 gusting 27 21.1
2014-Sep-18 14:15 217 16 gusting 23 21.1
2014-Sep-18 14:10 214 13 gusting 24 21.1
2014-Sep-18 14:05 360 19 gusting 27 20.6
2014-Sep-18 14:00 223 16 gusting 27 21.1
2014-Sep-18 13:55 239 20 gusting 31 20.6
2014-Sep-18 13:50 237 19 gusting 31 20.6
2014-Sep-18 13:45 217 17 gusting 26 21.1
2014-Sep-18 13:40 227 19 gusting 33 21.1
2014-Sep-18 13:35 218 24 gusting 33 21.1
2014-Sep-18 13:30 225 22 gusting 29 21.1
2014-Sep-18 13:25 236 18 gusting 29 21.7
2014-Sep-18 13:20 217 20 gusting 31 21.1
2014-Sep-18 13:15 250 19 gusting 30 21.1
2014-Sep-18 13:10 229 20 gusting 29 21.1
2014-Sep-18 13:05 360 23 gusting 28 21.7
2014-Sep-18 13:00 228 19 gusting 33 21.7
2014-Sep-18 12:55 225 27 gusting 33 21.7
2014-Sep-18 12:50 227 20 gusting 33 22.2
2014-Sep-18 12:45 209 22 gusting 33 22.2
2014-Sep-18 12:40 218 23 gusting 33 22.2
2014-Sep-18 12:35 234 20 gusting 30 22.2
2014-Sep-18 12:30 229 17 gusting 26 22.2
2014-Sep-18 12:25 235 20 gusting 34 22.2
2014-Sep-18 12:20 225 24 gusting 34 21.7
2014-Sep-18 12:15 360 15 gusting 25 22.2
2014-Sep-18 12:10 220 19 gusting 34 21.7
2014-Sep-18 12:05 221 22 gusting 34 21.7
2014-Sep-18 12:00 216 17 gusting 31 22.2
2014-Sep-18 11:55 360 21 gusting 31 21.7
2014-Sep-18 11:50 217 20 gusting 26 21.7
2014-Sep-18 11:45 225 19 gusting 27 21.7
2014-Sep-18 11:40 283 15 gusting 30 21.7
2014-Sep-18 11:35 214 19 gusting 30 22.2
2014-Sep-18 11:30 219 20 gusting 32 21.7
2014-Sep-18 11:25 225 21 gusting 32 21.7
2014-Sep-18 11:20 223 21 gusting 27 21.7
2014-Sep-18 11:15 216 18 gusting 33 21.7
2014-Sep-18 11:10 230 23 gusting 33 21.1
2014-Sep-18 11:05 360 19 gusting 26 21.1
2014-Sep-18 11:00 212 19 gusting 23 20.6
2014-Sep-18 10:55 209 15 gusting 23 20.0
2014-Sep-18 10:50 205 17 gusting 21 19.4
2014-Sep-18 10:45 204 16 gusting 21 18.9
2014-Sep-18 10:40 198 15 gusting 26 18.9
2014-Sep-18 10:35 217 14 gusting 26 19.4
2014-Sep-18 10:30 209 19 gusting 27 20.6
2014-Sep-18 10:25 224 19 gusting 27 21.1
2014-Sep-18 10:20 209 15 gusting 20 21.1
2014-Sep-18 10:15 227 13 gusting 23 20.6
2014-Sep-18 10:10 238 16 gusting 24 20.0
2014-Sep-18 10:05 229 19 gusting 29 20.0
2014-Sep-18 10:00 198 19 gusting 29 20.6
2014-Sep-18 09:55 214 18 gusting 22 20.6
2014-Sep-18 09:50 212 17 gusting 22 20.6
2014-Sep-18 09:45 206 18 gusting 22 20.6
2014-Sep-18 09:40 360 13 gusting 19 20.0
2014-Sep-18 09:35 213 12 gusting 19 20.0
2014-Sep-18 09:30 223 14 gusting 19 20.0
2014-Sep-18 09:25 202 12 gusting 14 19.4
2014-Sep-18 09:20 214 12 gusting 19 19.4
2014-Sep-18 09:15 227 14 gusting 19 19.4
2014-Sep-18 09:10 240 14 gusting 19 18.9
2014-Sep-18 09:05 216 13 gusting 19 18.9
2014-Sep-18 09:00 220 16 gusting 20 18.9
2014-Sep-18 08:55 211 15 gusting 19 18.9
2014-Sep-18 08:50 227 15 gusting 19 18.9
2014-Sep-18 08:45 229 15 gusting 24 18.3
2014-Sep-18 08:40 228 15 gusting 32 18.3
2014-Sep-18 08:35 194 18 gusting 33 18.3
2014-Sep-18 08:30 195 21 gusting 33 18.9
2014-Sep-18 08:25 221 11 gusting 19 20.0
2014-Sep-18 08:20 198 12 gusting 19 20.0
2014-Sep-18 08:15 218 13 gusting 20 20.6
2014-Sep-18 08:10 195 13 gusting 20 20.6
2014-Sep-18 08:05 193 13 gusting 24 20.6
2014-Sep-18 08:00 216 11 gusting 14 20.6
2014-Sep-18 07:55 216 12 gusting 18 20.6
2014-Sep-18 07:50 199 11 gusting 18 20.6
2014-Sep-18 07:45 200 12 gusting 18 20.0
2014-Sep-18 07:40 212 10 gusting 14 20.0
2014-Sep-18 07:35 200 12 gusting 14 20.0
2014-Sep-18 07:30 187 11 gusting 16 20.0
2014-Sep-18 07:25 175 10 gusting 17 20.0
2014-Sep-18 07:20 210 9 gusting 15 20.0
2014-Sep-18 07:15 210 11 gusting 15 19.4
2014-Sep-18 07:10 215 10 gusting 14 19.4
2014-Sep-18 07:05 196 10 gusting 13 19.4
2014-Sep-18 07:00 207 8 gusting 13 19.4
2014-Sep-18 06:55 209 10 gusting 15 19.4
2014-Sep-18 06:50 195 13 gusting 15 19.4
2014-Sep-18 06:45 202 10 gusting 14 19.4
2014-Sep-18 06:40 196 10 gusting 14 18.9
2014-Sep-18 06:35 203 11 gusting 14 18.9
2014-Sep-18 06:30 200 8 gusting 13 18.9
2014-Sep-18 06:25 200 10 gusting 13 18.9
2014-Sep-18 06:20 202 9 gusting 13 18.9
2014-Sep-18 06:15 207 8 gusting 13 18.9
2014-Sep-18 06:10 194 9 gusting 16 18.9
2014-Sep-18 06:05 193 8 gusting 16 19.4
2014-Sep-18 06:00 209 13 gusting 14 19.4
2014-Sep-18 05:55 209 8 gusting 15 19.4
2014-Sep-18 05:50 206 8 gusting 15 18.9
2014-Sep-18 05:45 202 8 gusting 13 18.9
2014-Sep-18 05:40 206 9 gusting 15 18.9
2014-Sep-18 05:35 195 9 gusting 14 18.9
2014-Sep-18 05:30 190 11 gusting 14 18.9
2014-Sep-18 05:25 209 8 gusting 13 18.9
2014-Sep-18 05:20 194 10 gusting 13 18.9
2014-Sep-18 05:15 180 10 gusting 13 18.9
2014-Sep-18 05:10 196 8 gusting 13 18.9
2014-Sep-18 05:05 195 9 gusting 15 18.9
2014-Sep-18 05:00 202 9 gusting 14 18.9
2014-Sep-18 04:55 205 9 gusting 15 18.9
2014-Sep-18 04:50 199 9 gusting 15 19.4
2014-Sep-18 04:45 202 10 gusting 13 18.9
2014-Sep-18 04:40 177 9 gusting 13 18.9
2014-Sep-18 04:35 191 7 gusting 14 18.9
2014-Sep-18 04:30 198 9 gusting 14 19.4
2014-Sep-18 04:25 204 11 gusting 14 19.4
2014-Sep-18 04:20 207 10 gusting 13 19.4
2014-Sep-18 04:15 206 8 gusting 12 19.4
2014-Sep-18 04:10 211 8 gusting 12 18.9
2014-Sep-18 04:05 201 7 gusting 13 19.4
2014-Sep-18 04:00 198 8 gusting 13 19.4
2014-Sep-18 03:55 209 9 gusting 14 19.4
2014-Sep-18 03:50 204 9 gusting 14 19.4
2014-Sep-18 03:45 190 10 gusting 15 19.4
2014-Sep-18 03:40 179 9 gusting 14 19.4
2014-Sep-18 03:35 215 9 gusting 13 19.4
2014-Sep-18 03:30 207 9 gusting 13 19.4
2014-Sep-18 03:25 210 7 gusting 10 19.4
2014-Sep-18 03:20 213 7 gusting 13 19.4
2014-Sep-18 03:15 210 7 gusting 15 19.4
2014-Sep-18 03:10 207 9 gusting 15 19.4
2014-Sep-18 03:05 215 6 gusting 12 19.4
2014-Sep-18 03:00 204 9 gusting 13 19.4
2014-Sep-18 02:55 178 9 gusting 13 19.4
2014-Sep-18 02:50 190 9 gusting 11 19.4
2014-Sep-18 02:45 194 6 gusting 11 18.9
2014-Sep-18 02:40 200 7 gusting 10 18.9
2014-Sep-18 02:35 214 6 gusting 12 18.9
2014-Sep-18 02:30 200 8 gusting 12 19.4
2014-Sep-18 02:25 193 9 gusting 12 19.4
2014-Sep-18 02:20 190 7 gusting 13 19.4
2014-Sep-18 02:15 196 9 gusting 13 19.4
2014-Sep-18 02:10 212 8 gusting 15 19.4
2014-Sep-18 02:05 200 7 gusting 15 19.4
2014-Sep-18 02:00 211 7 gusting 13 19.4
2014-Sep-18 01:55 208 9 gusting 13 19.4
2014-Sep-18 01:50 201 7 gusting 12 19.4
2014-Sep-18 01:45 207 8 gusting 12 19.4
2014-Sep-18 01:40 193 7 gusting 13 19.4
2014-Sep-18 01:35 195 6 gusting 12 19.4
2014-Sep-18 01:30 209 6 gusting 10 19.4
2014-Sep-18 01:25 212 6 gusting 10 19.4
2014-Sep-18 01:20 211 6 gusting 10 19.4
2014-Sep-18 01:15 197 7 gusting 10 19.4
2014-Sep-18 01:10 186 6 gusting 10 19.4
2014-Sep-18 01:05 211 7 gusting 13 19.4
2014-Sep-18 01:00 360 8 gusting 13 19.4
2014-Sep-18 00:55 204 8 gusting 12 19.4
2014-Sep-18 00:50 209 7 gusting 12 19.4
2014-Sep-18 00:45 193 7 gusting 12 19.4
2014-Sep-18 00:40 197 8 gusting 12 19.4
2014-Sep-18 00:35 204 6 gusting 11 19.4
2014-Sep-18 00:30 203 8 gusting 12 19.4
2014-Sep-18 00:25 189 8 gusting 13 19.4
2014-Sep-18 00:20 217 8 gusting 13 19.4
2014-Sep-18 00:15 191 9 gusting 13 19.4
2014-Sep-18 00:10 204 8 gusting 13 19.4
2014-Sep-18 00:05 196 10 gusting 13 19.4
2014-Sep-18 00:00 213 7 gusting 12 19.4
2014-Sep-17 23:55 204 7 gusting 12 19.4
2014-Sep-17 23:50 218 8 gusting 11 19.4
2014-Sep-17 23:45 219 8 gusting 13 19.4
2014-Sep-17 23:40 216 8 gusting 13 19.4
2014-Sep-17 23:35 213 9 gusting 13 19.4
2014-Sep-17 23:30 221 8 gusting 12 19.4
2014-Sep-17 23:25 222 8 gusting 13 19.4
2014-Sep-17 23:20 196 8 gusting 13 20.0
2014-Sep-17 23:15 198 10 gusting 14 20.0
2014-Sep-17 23:10 216 9 gusting 14 20.0
2014-Sep-17 23:05 219 8 gusting 12 20.0
2014-Sep-17 23:00 202 10 gusting 13 20.0
2014-Sep-17 22:55 216 10 gusting 13 20.0
2014-Sep-17 22:50 221 8 gusting 12 19.4
2014-Sep-17 22:45 212 8 gusting 13 19.4
2014-Sep-17 22:40 215 9 gusting 13 19.4
2014-Sep-17 22:35 221 9 gusting 12 19.4
2014-Sep-17 22:30 217 9 gusting 12 19.4
2014-Sep-17 22:25 212 7 gusting 11 19.4
2014-Sep-17 22:20 177 6 gusting 11 19.4
2014-Sep-17 22:15 219 8 gusting 11 19.4
2014-Sep-17 22:10 212 8 gusting 11 19.4
2014-Sep-17 22:05 201 7 gusting 11 19.4
2014-Sep-17 22:00 221 8 gusting 11 19.4
2014-Sep-17 21:55 205 8 gusting 11 19.4
2014-Sep-17 21:50 209 7 gusting 10 19.4
2014-Sep-17 21:45 226 8 gusting 12 19.4
2014-Sep-17 21:40 205 9 gusting 12 19.4
2014-Sep-17 21:35 206 7 gusting 13 19.4
2014-Sep-17 21:30 222 9 gusting 13 19.4
2014-Sep-17 21:25 207 9 gusting 12 19.4
2014-Sep-17 21:20 225 9 gusting 12 20.0
2014-Sep-17 21:15 217 7 gusting 12 20.0
2014-Sep-17 21:10 188 7 gusting 11 20.0
2014-Sep-17 21:05 197 7 gusting 12 20.0
2014-Sep-17 21:00 206 8 gusting 13 20.0
2014-Sep-17 20:55 225 8 gusting 13 20.0
2014-Sep-17 20:50 215 9 gusting 11 20.0
2014-Sep-17 20:45 205 8 gusting 13 20.0
2014-Sep-17 20:40 220 9 gusting 15 20.0
2014-Sep-17 20:35 215 12 gusting 15 20.0
2014-Sep-17 20:30 236 12 gusting 14 20.0
2014-Sep-17 20:25 225 11 gusting 14 20.0
2014-Sep-17 20:20 215 12 gusting 15 20.0
2014-Sep-17 20:15 217 12 gusting 16 20.0
2014-Sep-17 20:10 225 11 gusting 16 20.0
2014-Sep-17 20:05 246 13 gusting 16 20.6
2014-Sep-17 20:00 237 12 gusting 19 20.6
2014-Sep-17 19:55 360 13 gusting 18 20.6
2014-Sep-17 19:50 240 13 gusting 19 20.6
2014-Sep-17 19:45 240 10 gusting 19 20.6
2014-Sep-17 19:40 252 14 gusting 19 20.6
2014-Sep-17 19:35 238 14 gusting 19 20.6
2014-Sep-17 19:30 265 13 gusting 18 20.6
2014-Sep-17 19:25 228 12 gusting 18 20.6
2014-Sep-17 19:20 360 9 gusting 18 20.0
2014-Sep-17 19:15 223 11 gusting 16 20.0
2014-Sep-17 19:10 360 13 gusting 18 20.6
2014-Sep-17 19:05 221 13 gusting 18 20.6
2014-Sep-17 19:00 360 11 gusting 14 20.6
2014-Sep-17 18:55 238 11 gusting 18 20.6
2014-Sep-17 18:50 206 11 gusting 18 20.6
2014-Sep-17 18:45 224 11 gusting 19 20.6
2014-Sep-17 18:40 228 13 gusting 19 20.6
2014-Sep-17 18:35 229 13 gusting 19 20.6
2014-Sep-17 18:30 218 13 gusting 19 20.6
2014-Sep-17 18:25 232 13 gusting 22 20.6
2014-Sep-17 18:20 228 15 gusting 22 21.1
2014-Sep-17 18:15 360 13 gusting 19 21.1
2014-Sep-17 18:10 244 13 gusting 19 21.1
2014-Sep-17 18:05 234 13 gusting 20 21.1
2014-Sep-17 18:00 225 17 gusting 20 21.1
2014-Sep-17 17:55 360 11 gusting 22 21.1
2014-Sep-17 17:50 215 16 gusting 24 21.1
2014-Sep-17 17:45 360 19 gusting 24 21.1
2014-Sep-17 17:40 222 16 gusting 23 21.7
2014-Sep-17 17:35 360 13 gusting 21 21.7
2014-Sep-17 17:30 360 15 gusting 21 21.7
2014-Sep-17 17:25 360 16 gusting 20 21.1
2014-Sep-17 17:20 225 13 gusting 22 21.7
2014-Sep-17 17:15 360 13 gusting 22 21.7
2014-Sep-17 17:10 241 14 gusting 23 21.7
2014-Sep-17 17:05 210 13 gusting 23 21.7
2014-Sep-17 17:00 238 16 gusting 24 21.7
2014-Sep-17 16:55 239 16 gusting 24 21.7
2014-Sep-17 16:50 230 19 gusting 23 22.2
2014-Sep-17 16:45 360 17 gusting 22 21.7
2014-Sep-17 16:40 208 15 gusting 25 22.2
2014-Sep-17 16:35 219 19 gusting 25 22.2
2014-Sep-17 16:30 360 18 gusting 25 22.2
2014-Sep-17 16:25 257 18 gusting 26 22.2
2014-Sep-17 16:20 360 19 gusting 26 22.2
2014-Sep-17 16:15 360 20 gusting 28 22.2
2014-Sep-17 16:10 234 16 gusting 28 22.2
2014-Sep-17 16:05 360 16 gusting 23 22.2
2014-Sep-17 16:00 234 17 gusting 23 22.2
2014-Sep-17 15:55 360 17 gusting 26 22.2
2014-Sep-17 15:50 360 17 gusting 26 22.2
2014-Sep-17 15:45 217 17 gusting 28 22.2
2014-Sep-17 15:40 360 19 gusting 28 22.2
2014-Sep-17 15:35 238 21 gusting 27 22.2
2014-Sep-17 15:30 227 21 gusting 28 22.2
2014-Sep-17 15:25 245 16 gusting 28 22.8
2014-Sep-17 15:20 232 18 gusting 26 22.8
2014-Sep-17 15:15 360 16 gusting 26 22.8
2014-Sep-17 15:10 248 14 gusting 26 22.8
2014-Sep-17 15:05 236 15 gusting 26 22.8
2014-Sep-17 15:00 236 18 gusting 26 22.2
2014-Sep-17 14:55 220 19 gusting 26 22.2
2014-Sep-17 14:50 360 20 gusting 26 22.2
2014-Sep-17 14:45 360 18 gusting 25 22.2
2014-Sep-17 14:40 218 17 gusting 27 22.2
2014-Sep-17 14:35 201 19 gusting 27 22.2
2014-Sep-17 14:30 360 20 gusting 26 21.7
2014-Sep-17 14:25 250 15 gusting 22 21.1
2014-Sep-17 14:20 238 15 gusting 19 21.1
2014-Sep-17 14:15 256 13 gusting 26 21.1
2014-Sep-17 14:10 219 20 gusting 26 21.1
2014-Sep-17 14:05 217 17 gusting 23 21.7
2014-Sep-17 14:00 217 14 gusting 24 21.7
2014-Sep-17 13:55 247 19 gusting 26 21.7
2014-Sep-17 13:50 232 20 gusting 29 21.7
2014-Sep-17 13:45 221 17 gusting 29 22.2
2014-Sep-17 13:40 234 23 gusting 28 22.2
2014-Sep-17 13:35 360 19 gusting 26 22.2
2014-Sep-17 13:30 264 20 gusting 27 22.2
2014-Sep-17 13:25 360 21 gusting 27 22.2
2014-Sep-17 13:20 360 19 gusting 30 22.8
2014-Sep-17 13:15 360 21 gusting 29 22.2
2014-Sep-17 13:10 360 19 gusting 27 22.8
2014-Sep-17 13:05 236 20 gusting 27 22.2
2014-Sep-17 13:00 229 22 gusting 27 22.2
2014-Sep-17 12:55 236 18 gusting 27 22.8
2014-Sep-17 12:50 205 14 gusting 25 22.8
2014-Sep-17 12:45 232 18 gusting 27 22.2
2014-Sep-17 12:40 259 19 gusting 28 22.8
2014-Sep-17 12:35 360 19 gusting 26 22.2
2014-Sep-17 12:30 252 16 gusting 27 22.8
2014-Sep-17 12:25 215 20 gusting 27 22.8
2014-Sep-17 12:20 247 18 gusting 28 22.2
2014-Sep-17 12:15 360 18 gusting 27 22.2
2014-Sep-17 12:10 219 18 gusting 27 22.2
2014-Sep-17 12:05 227 19 gusting 30 22.2
2014-Sep-17 12:00 360 23 gusting 30 22.2
2014-Sep-17 11:55 244 22 gusting 28 22.2
2014-Sep-17 11:50 250 16 gusting 24 22.8
2014-Sep-17 11:45 360 19 gusting 30 22.2
2014-Sep-17 11:40 234 19 gusting 30 22.2
2014-Sep-17 11:35 248 19 gusting 29 22.8
2014-Sep-17 11:30 219 15 gusting 29 22.2
2014-Sep-17 11:25 360 16 gusting 25 22.2
2014-Sep-17 11:20 225 19 gusting 27 22.2
2014-Sep-17 11:15 208 18 gusting 28 22.2
2014-Sep-17 11:10 360 19 gusting 26 22.2
2014-Sep-17 11:05 242 19 gusting 27 22.2
2014-Sep-17 11:00 242 19 gusting 27 22.2
2014-Sep-17 10:55 225 21 gusting 26 22.2
2014-Sep-17 10:50 221 18 gusting 23 22.2
2014-Sep-17 10:45 222 17 gusting 24 21.7
2014-Sep-17 10:40 238 16 gusting 25 21.7
2014-Sep-17 10:35 271 19 gusting 25 21.7
2014-Sep-17 10:30 360 17 gusting 22 22.2
2014-Sep-17 10:25 244 17 gusting 23 22.2
2014-Sep-17 10:20 251 19 gusting 23 22.2
2014-Sep-17 10:15 360 19 gusting 26 22.2
2014-Sep-17 10:10 242 19 gusting 26 21.7
2014-Sep-17 10:05 360 21 gusting 25 22.2
2014-Sep-17 10:00 360 17 gusting 24 21.7
2014-Sep-17 09:55 223 17 gusting 24 21.7
2014-Sep-17 09:50 236 13 gusting 25 21.7
2014-Sep-17 09:45 360 19 gusting 25 21.1
2014-Sep-17 09:40 239 13 gusting 19 21.7
2014-Sep-17 09:35 225 15 gusting 21 21.7
2014-Sep-17 09:30 217 15 gusting 21 21.7
2014-Sep-17 09:25 360 15 gusting 23 21.7
2014-Sep-17 09:20 257 15 gusting 23 21.7
2014-Sep-17 09:15 234 12 gusting 24 21.7
2014-Sep-17 09:10 280 18 gusting 24 21.7
2014-Sep-17 09:05 216 15 gusting 22 21.1
2014-Sep-17 09:00 244 14 gusting 20 21.1
2014-Sep-17 08:55 225 12 gusting 19 21.7
2014-Sep-17 08:50 234 13 gusting 23 21.1
2014-Sep-17 08:45 258 13 gusting 23 21.1
2014-Sep-17 08:40 234 13 gusting 22 21.1
2014-Sep-17 08:35 233 11 gusting 22 21.1
2014-Sep-17 08:30 244 12 gusting 23 21.1
2014-Sep-17 08:25 254 16 gusting 23 21.1
2014-Sep-17 08:20 234 11 gusting 19 21.1
2014-Sep-17 08:15 278 14 gusting 19 21.1
2014-Sep-17 08:10 238 12 gusting 18 21.1
2014-Sep-17 08:05 240 13 gusting 17 20.6
2014-Sep-17 08:00 215 11 gusting 14 20.6
2014-Sep-17 07:55 210 10 gusting 14 20.6
2014-Sep-17 07:50 219 9 gusting 15 20.0
2014-Sep-17 07:45 360 9 gusting 15 20.0
2014-Sep-17 07:40 215 8 gusting 14 20.0
2014-Sep-17 07:35 215 9 gusting 14 19.4
2014-Sep-17 07:30 207 8 gusting 12 19.4
2014-Sep-17 07:25 198 7 gusting 11 19.4
2014-Sep-17 07:20 210 6 gusting 9 19.4
2014-Sep-17 07:15 211 6 gusting 12 19.4
2014-Sep-17 07:10 213 6 gusting 12 19.4
2014-Sep-17 07:05 214 6 gusting 10 19.4
2014-Sep-17 07:00 215 6 gusting 9 19.4
2014-Sep-17 06:55 219 6 gusting 9 18.9
2014-Sep-17 06:50 211 7 gusting 9 18.9
2014-Sep-17 06:45 213 6 gusting 10 18.9
2014-Sep-17 06:40 220 7 gusting 11 18.9
2014-Sep-17 06:35 222 8 gusting 11 19.4
2014-Sep-17 06:30 227 9 gusting 12 19.4
2014-Sep-17 06:25 221 8 gusting 12 19.4
2014-Sep-17 06:20 201 9 gusting 11 18.9
2014-Sep-17 06:15 221 7 gusting 11 18.9
2014-Sep-17 06:10 218 7 gusting 11 18.9
2014-Sep-17 06:05 219 8 gusting 11 18.9
2014-Sep-17 06:00 219 9 gusting 11 18.9
2014-Sep-17 05:55 196 8 gusting 12 18.9
2014-Sep-17 05:50 235 8 gusting 12 18.9
2014-Sep-17 05:45 232 9 gusting 14 19.4
2014-Sep-17 05:40 213 10 gusting 14 19.4
2014-Sep-17 05:35 252 10 gusting 15 19.4
2014-Sep-17 05:30 216 11 gusting 15 19.4
2014-Sep-17 05:25 239 11 gusting 15 19.4
2014-Sep-17 05:20 235 10 gusting 14 19.4
2014-Sep-17 05:15 219 10 gusting 14 19.4
2014-Sep-17 05:10 226 11 gusting 14 19.4
2014-Sep-17 05:05 236 9 gusting 15 19.4
2014-Sep-17 05:00 232 10 gusting 15 19.4
2014-Sep-17 04:55 232 11 gusting 15 19.4
2014-Sep-17 04:50 235 10 gusting 13 19.4
2014-Sep-17 04:45 222 10 gusting 14 19.4
2014-Sep-17 04:40 233 11 gusting 14 19.4
2014-Sep-17 04:35 224 10 gusting 13 19.4
2014-Sep-17 04:30 232 10 gusting 13 19.4
2014-Sep-17 04:25 250 10 gusting 13 19.4
2014-Sep-17 04:20 220 9 gusting 13 19.4
2014-Sep-17 04:15 209 11 gusting 13 19.4
2014-Sep-17 04:10 215 10 gusting 13 19.4
2014-Sep-17 04:05 232 11 gusting 13 19.4
2014-Sep-17 04:00 234 9 gusting 15 19.4
2014-Sep-17 03:55 221 10 gusting 16 19.4
2014-Sep-17 03:50 246 11 gusting 16 19.4
2014-Sep-17 03:45 229 11 gusting 14 19.4
2014-Sep-17 03:40 236 12 gusting 17 20.0
2014-Sep-17 03:35 239 13 gusting 17 20.0
2014-Sep-17 03:30 220 12 gusting 15 20.0
2014-Sep-17 03:25 231 11 gusting 18 20.0
2014-Sep-17 03:20 252 13 gusting 19 20.0
2014-Sep-17 03:15 234 13 gusting 19 20.0
2014-Sep-17 03:10 221 11 gusting 17 19.4
2014-Sep-17 03:05 219 12 gusting 17 20.0
2014-Sep-17 03:00 237 9 gusting 19 19.4
2014-Sep-17 02:55 227 13 gusting 19 20.0
2014-Sep-17 02:50 236 11 gusting 17 20.0
2014-Sep-17 02:45 232 13 gusting 17 20.0
2014-Sep-17 02:40 229 13 gusting 17 20.0
2014-Sep-17 02:35 234 12 gusting 17 20.0
2014-Sep-17 02:30 225 13 gusting 15 20.0
2014-Sep-17 02:25 224 12 gusting 19 20.0
2014-Sep-17 02:20 219 11 gusting 19 20.0
2014-Sep-17 02:15 233 13 gusting 17 20.0
2014-Sep-17 02:10 240 13 gusting 19 20.0
2014-Sep-17 02:05 199 13 gusting 19 20.0
2014-Sep-17 02:00 215 14 gusting 21 20.0
2014-Sep-17 01:55 227 15 gusting 21 20.0
2014-Sep-17 01:50 217 15 gusting 19 20.0
2014-Sep-17 01:45 214 14 gusting 22 20.0
2014-Sep-17 01:40 225 15 gusting 22 20.0
2014-Sep-17 01:35 266 13 gusting 19 20.0
2014-Sep-17 01:30 230 14 gusting 19 20.0
2014-Sep-17 01:25 227 15 gusting 19 20.0
2014-Sep-17 01:20 218 13 gusting 19 20.0
2014-Sep-17 01:15 253 13 gusting 22 20.0
2014-Sep-17 01:10 225 14 gusting 23 20.6
2014-Sep-17 01:05 216 17 gusting 23 20.6
2014-Sep-17 01:00 246 15 gusting 20 20.6
2014-Sep-17 00:55 258 14 gusting 20 20.0
2014-Sep-17 00:50 228 16 gusting 20 20.0
2014-Sep-17 00:45 225 15 gusting 19 20.0
2014-Sep-17 00:40 219 15 gusting 22 20.0
2014-Sep-17 00:35 225 17 gusting 23 20.0
2014-Sep-17 00:30 233 16 gusting 23 20.0
2014-Sep-17 00:25 221 14 gusting 25 20.0
2014-Sep-17 00:20 260 17 gusting 26 20.0
2014-Sep-17 00:15 257 17 gusting 26 20.0
2014-Sep-17 00:10 223 19 gusting 26 20.6
2014-Sep-17 00:05 232 16 gusting 23 20.6
2014-Sep-17 00:00 221 14 gusting 25 20.0
2014-Sep-16 23:55 218 17 gusting 21 20.6
2014-Sep-16 23:50 237 15 gusting 25 20.6
2014-Sep-16 23:45 231 17 gusting 25 20.6
2014-Sep-16 23:40 273 19 gusting 26 20.6
2014-Sep-16 23:35 237 16 gusting 26 20.6
2014-Sep-16 23:30 228 19 gusting 26 20.6
2014-Sep-16 23:25 216 18 gusting 28 20.6
2014-Sep-16 23:20 220 19 gusting 28 20.6
2014-Sep-16 23:15 209 15 gusting 22 20.6
2014-Sep-16 23:10 225 16 gusting 25 20.6
2014-Sep-16 23:05 206 17 gusting 25 20.6
2014-Sep-16 23:00 224 14 gusting 20 20.0